When you browse on this site, cookies collect data to enhance your experience and personalize the content and advertising you see.
Visit our Privacy Policy to learn more. By continuing to use the site, you agree to this use of cookies and data.
  • în România
  • Lista ţărilor
  • Pe 7 zile
  • Temperatura apei
  • Meteo pe hartă
  • Widget-uri
  • user-avatar
    Intrare

    Meteo pe oră la Newport

    Astăzi, 13 Decembrie, Vineri

    Timp Temperatura Precipitaţii Vânt Presiune Umiditate
    00:00 +2°C° 0.4 mm 15 m/s 727 mmHg 84%
    01:00 +2°C° 0.2 mm 15 m/s 728 mmHg 83%
    02:00 +2°C° 0.2 mm 15 m/s 728 mmHg 82%
    03:00 +2°C° 0.2 mm 15 m/s 728 mmHg 81%
    04:00 +2°C° 0.1 mm 15 m/s 728 mmHg 79%
    05:00 +3°C° 0.1 mm 14 m/s 729 mmHg 76%
    06:00 +1°C° 0.1 mm 14 m/s 730 mmHg 74%
    07:00 +1°C° 0 mm 14 m/s 731 mmHg 74%
    08:00 +1°C° 0 mm 13 m/s 732 mmHg 74%
    09:00 +1°C° 0 mm 13 m/s 733 mmHg 75%
    10:00 +3°C° 0 mm 13 m/s 734 mmHg 74%
    11:00 +3°C° 0 mm 13 m/s 734 mmHg 73%
    12:00 +4°C° 0 mm 13 m/s 735 mmHg 72%
    13:00 +4°C° 0 mm 14 m/s 735 mmHg 73%
    14:00 +4°C° 0 mm 14 m/s 736 mmHg 75%
    15:00 +4°C° 0 mm 14 m/s 736 mmHg 76%
    16:00 +3°C° 0 mm 13 m/s 737 mmHg 75%
    17:00 +3°C° 0 mm 12 m/s 737 mmHg 74%
    18:00 +3°C° 0 mm 12 m/s 737 mmHg 73%
    19:00 +3°C° 0 mm 10 m/s 737 mmHg 77%
    20:00 +3°C° 0 mm 9 m/s 737 mmHg 80%
    21:00 +4°C° 0 mm 7 m/s 736 mmHg 83%
    22:00 +5°C° 0.5 mm 9 m/s 736 mmHg 84%
    23:00 +6°C° 0.5 mm 10 m/s 735 mmHg 85%

    Mâine, 14 Decembrie, Sâmbătă

    Timp Temperatura Precipitaţii Vânt Presiune Umiditate
    00:00 +7°C° 0.5 mm 12 m/s 734 mmHg 86%
    01:00 +7°C° 0 mm 13 m/s 735 mmHg 83%
    02:00 +5°C° 0 mm 13 m/s 736 mmHg 80%
    03:00 +4°C° 0 mm 14 m/s 737 mmHg 77%
    04:00 +3°C° 0 mm 14 m/s 738 mmHg 76%
    05:00 +3°C° 0 mm 13 m/s 739 mmHg 75%
    06:00 +1°C° 0 mm 13 m/s 740 mmHg 74%
    07:00 +2°C° 0 mm 12 m/s 740 mmHg 76%
    08:00 +2°C° 0 mm 11 m/s 741 mmHg 77%
    09:00 +2°C° 0 mm 10 m/s 741 mmHg 79%
    10:00 +3°C° 0.1 mm 10 m/s 741 mmHg 80%
    11:00 +3°C° 0.1 mm 10 m/s 742 mmHg 81%
    12:00 +3°C° 0.1 mm 11 m/s 742 mmHg 82%
    13:00 +3°C° 0 mm 10 m/s 742 mmHg 78%
    14:00 +3°C° 0 mm 9 m/s 742 mmHg 75%
    15:00 +4°C° 0 mm 8 m/s 743 mmHg 72%
    16:00 +4°C° 0 mm 8 m/s 742 mmHg 73%
    17:00 +4°C° 0 mm 8 m/s 742 mmHg 75%
    18:00 +4°C° 0 mm 8 m/s 741 mmHg 76%
    19:00 +5°C° 0.3 mm 10 m/s 740 mmHg 77%
    20:00 +5°C° 0.3 mm 12 m/s 739 mmHg 77%
    21:00 +7°C° 0.3 mm 13 m/s 739 mmHg 78%
    22:00 +5°C° 0.5 mm 14 m/s 739 mmHg 73%
    23:00 +4°C° 0.5 mm 14 m/s 739 mmHg 68%

    Poimâine, 15 Decembrie, Duminică

    Timp Temperatura Precipitaţii Vânt Presiune Umiditate
    00:00 +2°C° 0.5 mm 15 m/s 739 mmHg 63%
    01:00 +3°C° 0 mm 14 m/s 740 mmHg 64%
    02:00 +3°C° 0 mm 14 m/s 741 mmHg 65%
    03:00 +3°C° 0 mm 13 m/s 742 mmHg 67%
    04:00 +3°C° 0.1 mm 12 m/s 743 mmHg 68%
    05:00 +3°C° 0.1 mm 12 m/s 743 mmHg 70%
    06:00 +3°C° 0.1 mm 11 m/s 743 mmHg 71%
    07:00 +3°C° 0.2 mm 11 m/s 744 mmHg 71%
    08:00 +3°C° 0.2 mm 11 m/s 744 mmHg 72%
    09:00 +3°C° 0.2 mm 11 m/s 745 mmHg 72%
    10:00 +4°C° 0.3 mm 12 m/s 745 mmHg 71%
    11:00 +5°C° 0.3 mm 12 m/s 745 mmHg 70%
    12:00 +5°C° 0.3 mm 12 m/s 745 mmHg 69%
    13:00 +5°C° 0.4 mm 13 m/s 745 mmHg 72%
    14:00 +5°C° 0.4 mm 13 m/s 745 mmHg 75%
    15:00 +4°C° 0.4 mm 13 m/s 744 mmHg 78%
    16:00 +4°C° 0.5 mm 12 m/s 745 mmHg 77%
    17:00 +4°C° 0.5 mm 11 m/s 745 mmHg 76%
    18:00 +5°C° 0.5 mm 10 m/s 745 mmHg 76%
    19:00 +5°C° 0.2 mm 10 m/s 746 mmHg 76%
    20:00 +5°C° 0.2 mm 10 m/s 746 mmHg 76%
    21:00 +3°C° 0.2 mm 9 m/s 746 mmHg 75%
    22:00 +3°C° 0.2 mm 9 m/s 746 mmHg 76%
    23:00 +3°C° 0.2 mm 9 m/s 747 mmHg 77%

    16 Decembrie, Luni

    Timp Temperatura Precipitaţii Vânt Presiune Umiditate
    00:00 +3°C° 0.2 mm 9 m/s 747 mmHg 78%
    01:00 +5°C° 0.4 mm 9 m/s 747 mmHg 78%
    02:00 +5°C° 0.4 mm 9 m/s 747 mmHg 79%
    03:00 +5°C° 0.4 mm 8 m/s 747 mmHg 79%
    04:00 +5°C° 0.3 mm 8 m/s 747 mmHg 80%
    05:00 +5°C° 0.3 mm 7 m/s 747 mmHg 81%
    06:00 +5°C° 0.3 mm 7 m/s 747 mmHg 82%
    07:00 +5°C° 0.3 mm 7 m/s 747 mmHg 82%
    08:00 +5°C° 0.3 mm 6 m/s 747 mmHg 83%
    09:00 +5°C° 0.3 mm 6 m/s 748 mmHg 83%
    10:00 +7°C° 0.1 mm 6 m/s 748 mmHg 81%
    11:00 +7°C° 0.1 mm 6 m/s 747 mmHg 80%
    12:00 +8°C° 0.1 mm 5 m/s 747 mmHg 78%
    13:00 +8°C° 0.1 mm 5 m/s 747 mmHg 79%
    14:00 +7°C° 0.1 mm 5 m/s 747 mmHg 80%
    15:00 +7°C° 0.1 mm 5 m/s 747 mmHg 81%
    16:00 +7°C° 0.1 mm 4 m/s 747 mmHg 83%
    17:00 +7°C° 0.1 mm 4 m/s 747 mmHg 84%
    18:00 +6°C° 0.1 mm 4 m/s 747 mmHg 85%
    19:00 +6°C° 0 mm 4 m/s 747 mmHg 85%
    20:00 +6°C° 0 mm 4 m/s 747 mmHg 84%
    21:00 +7°C° 0 mm 4 m/s 747 mmHg 84%
    22:00 +7°C° 0 mm 4 m/s 747 mmHg 83%
    23:00 +7°C° 0 mm 4 m/s 747 mmHg 83%

    17 Decembrie, Marţi

    Timp Temperatura Precipitaţii Vânt Presiune Umiditate
    00:00 +7°C° 0 mm 5 m/s 748 mmHg 82%
    01:00 +6°C° 0 mm 5 m/s 748 mmHg 84%
    02:00 +4°C° 0 mm 6 m/s 748 mmHg 85%
    03:00 +4°C° 0 mm 6 m/s 748 mmHg 87%
    04:00 +3°C° 0 mm 6 m/s 749 mmHg 87%
    05:00 +3°C° 0 mm 6 m/s 749 mmHg 86%
    06:00 +3°C° 0 mm 5 m/s 749 mmHg 86%
    07:00 +3°C° 0 mm 5 m/s 750 mmHg 85%
    08:00 +3°C° 0 mm 5 m/s 750 mmHg 85%
    09:00 +3°C° 0 mm 5 m/s 751 mmHg 85%
    10:00 +4°C° 0 mm 6 m/s 751 mmHg 81%
    11:00 +5°C° 0 mm 7 m/s 751 mmHg 78%
    12:00 +6°C° 0 mm 8 m/s 751 mmHg 74%
    13:00 +6°C° 0 mm 8 m/s 752 mmHg 77%
    14:00 +5°C° 0 mm 7 m/s 752 mmHg 79%
    15:00 +5°C° 0 mm 6 m/s 753 mmHg 82%
    16:00 +4°C° 0 mm 6 m/s 753 mmHg 83%
    17:00 +4°C° 0 mm 6 m/s 754 mmHg 84%
    18:00 +3°C° 0 mm 5 m/s 755 mmHg 85%
    19:00 +3°C° 0 mm 5 m/s 755 mmHg 84%
    20:00 +3°C° 0 mm 5 m/s 756 mmHg 83%
    21:00 +3°C° 0 mm 5 m/s 757 mmHg 82%
    22:00 +3°C° 0.1 mm 5 m/s 757 mmHg 81%
    23:00 +4°C° 0.1 mm 6 m/s 757 mmHg 81%

    18 Decembrie, Miercuri

    Timp Temperatura Precipitaţii Vânt Presiune Umiditate
    00:00 +4°C° 0.1 mm 7 m/s 758 mmHg 81%
    01:00 +4°C° 0 mm 7 m/s 758 mmHg 80%
    02:00 +5°C° 0 mm 8 m/s 758 mmHg 79%
    03:00 +5°C° 0 mm 8 m/s 758 mmHg 78%
    04:00 +5°C° 0 mm 9 m/s 758 mmHg 78%
    05:00 +5°C° 0 mm 9 m/s 758 mmHg 78%
    06:00 +6°C° 0 mm 9 m/s 758 mmHg 79%
    07:00 +6°C° 0 mm 9 m/s 758 mmHg 79%
    08:00 +6°C° 0 mm 9 m/s 758 mmHg 80%
    09:00 +6°C° 0 mm 9 m/s 759 mmHg 80%
    10:00 +6°C° 0 mm 9 m/s 759 mmHg 80%
    11:00 +6°C° 0 mm 9 m/s 759 mmHg 80%
    12:00 +7°C° 0 mm 9 m/s 759 mmHg 79%
    13:00 +6°C° 0 mm 9 m/s 758 mmHg 79%
    14:00 +6°C° 0 mm 9 m/s 758 mmHg 80%
    15:00 +6°C° 0 mm 8 m/s 758 mmHg 80%
    16:00 +6°C° 0 mm 8 m/s 757 mmHg 79%
    17:00 +6°C° 0 mm 8 m/s 757 mmHg 78%
    18:00 +6°C° 0 mm 8 m/s 757 mmHg 78%
    19:00 +6°C° 0 mm 8 m/s 757 mmHg 78%
    20:00 +6°C° 0 mm 8 m/s 757 mmHg 78%
    21:00 +6°C° 0 mm 8 m/s 757 mmHg 79%
    22:00 +6°C° 0 mm 7 m/s 756 mmHg 81%
    23:00 +6°C° 0 mm 7 m/s 756 mmHg 82%
    Arată mai mult